SCP
-0 0 -0 -0 -0 -0 -0 -0 -0 -0 -0 -0 0 -0 0 0 0 0 0 0 0 0 0 0 0 0 0 0 0 0 0 0
0 0 0 -0 -0 -0 -0 -0 -0 -0 -0 -0 -0 -0 0 0 0 0 0 0 0 0 0 0 0 0 0 0 0 0 0 0
-0 -0 -0 -0 -0 -0 -0 -0 0 -0 -0 -0 -0 0 0 0 0 0 0 0 0 0 0 0 0 0 0 0 0 0 -0 -0
-0 -0 -0 -0 -0 -0 -0 -0 0 -0 0 0 0 0 0 0 0 0 0 0 0 0 0 0 0 0 0 0 0 0 0 -0
-0 -0 -0 -0 -0 -0 -0 -0 -0 0 0 0 0 0 0 0 0 0 0 0 0 0 0 0 0 0 0 0 0 0 0 0
-0 -0 -0 -0 -0 -0 -0 0 0 0 0 0 0 0 0 0 0 0 0 0 0 0 0 0 0 0 0 0 0 0 0 0
0 0 -0 -0 -0 0 0 0 0 0 1 0 0 0 0 0 0 0 0 0 0 0 0 0 0 0 0 0 0 0 0 0
-0 -0 -0 0 -0 -0 0 0 0 0 1 0 0 0 0 0 0 0 0 0 0 0 0 0 0 0 0 0 0 0 0 0
0 -0 0 -0 -0 -0 0 0 0 0 0 0 0 0 0 0 0 0 0 0 0 0 0 0 0 0 0 0 0 0 0 0
-0 0 0 -0 -0 -0 -0 -0 -0 0 0 0 0 -0 -0 0 0 0 0 0 0 0 0 0 0 0 0 0 0 0 0 0
0 -0 0 -0 -0 -0 -0 -0 -0 -0 -0 -0 0 0 0 0 0 0 0 0 0 0 0 0 0 -0 -0 0 0 0 0 0
-0 0 -0 0 0 0 0 0 0 0 0 0 0 0 0 0 0 0 0 0 0 0 0 0 0 -0 -0 0 0 0 0 0
-0 -0 -0 -0 0 0 0 0 0 0 0 0 0 0 0 0 0 0 0 0 0 0 0 0 0 0 0 0 0 0 0 0
-0 -0 0 0 0 0 0 0 0 0 0 0 0 0 0 0 0 0 0 0 0 0 0 0 0 0 0 0 0 0 0 0
-0 -0 -0 -0 0 0 0 0 0 0 0 0 0 0 0 0 0 0 0 0 0 0 0 0 0 0 0 0 0 0 0 0
-0 -0 -0 0 0 0 0 0 0 0 0 0 0 0 0 0 0 0 0 0 0 0 0 0 0 0 0 0 0 0 0 0
-0 -0 -0 0 0 0 0 0 0 0 0 1 1 1 0 0 0 1 0 0 0 0 0 0 0 0 0 0 0 0 0 0
0 0 0 0 0 1 1 0 0 1 1 1 1 1 0 1 1 1 0 0 0 0 0 0 0 0 0 0 0 0 0 0
0 0 0 0 1 1 1 1 1 1 1 1 1 1 1 1 1 1 1 1 0 0 0 0 0 0 0 0 0 0 0 0
0 0 0 1 1 1 2 2 1 1 1 1 0 0 1 1 1 1 1 1 0 0 0 0 0 0 0 0 0 0 0 0
Wind_Speed_500mb
39 37 31 31 32 31 29 26 23 25 21 19 19 16 15 12 9 7 5 5 4 5 4 6 6 11 13 15 16 14 13 14
38 34 33 30 28 27 26 26 25 26 24 20 16 13 12 9 8 5 3 1 5 6 5 3 2 4 9 16 14 15 14 12
36 32 31 33 30 27 24 23 25 27 25 20 16 14 14 10 10 4 1 3 7 8 9 2 6 5 5 12 13 15 17 16
35 33 33 32 29 26 24 23 25 28 26 22 18 15 15 12 8 5 3 8 10 13 12 2 7 11 7 11 6 9 14 16
33 29 30 32 31 28 27 25 27 28 25 23 21 19 18 13 11 11 9 12 13 16 11 7 7 10 14 18 9 11 11 12
15 20 23 26 26 30 29 30 30 29 26 24 25 25 22 18 18 17 17 17 15 16 12 10 10 12 15 20 12 19 17 12
12 20 18 18 21 27 34 36 32 30 28 27 24 31 27 25 24 23 21 19 18 16 14 12 10 14 16 15 13 21 22 17
3 7 21 17 18 23 33 40 37 30 27 22 28 33 29 30 27 26 25 22 20 19 17 14 13 16 19 15 16 23 21 22
23 16 14 23 17 15 26 40 41 29 24 24 23 22 31 22 27 27 29 29 24 19 19 17 14 14 15 20 23 23 24 21
41 30 20 12 14 13 20 30 29 29 21 17 20 14 16 26 29 32 33 30 24 20 19 18 15 17 21 18 25 25 27 26
23 22 17 9 9 9 13 19 26 23 16 18 13 13 10 21 21 23 25 25 25 23 21 22 21 18 17 19 24 27 22 32
9 17 19 18 12 12 14 19 23 26 22 20 16 13 17 19 22 27 25 26 24 25 24 25 26 20 17 19 23 29 29 24
4 13 16 8 12 15 19 23 27 25 22 22 21 19 20 22 27 28 22 22 27 27 28 27 33 30 29 27 27 26 27 25
10 10 10 11 13 21 25 28 30 29 29 25 23 22 21 22 24 23 23 27 29 28 30 28 38 36 36 33 29 26 27 27
19 17 15 16 19 22 23 27 31 31 28 25 23 23 23 22 20 18 20 25 25 27 31 30 34 39 38 37 33 29 30 33
28 23 19 20 26 28 24 29 33 31 28 26 25 24 26 24 23 21 19 19 22 26 27 28 32 39 43 42 38 35 33 34
31 29 26 26 28 29 22 29 32 30 27 27 23 22 22 22 23 26 25 26 24 24 25 25 29 34 40 43 44 40 39 39
37 37 34 33 32 30 30 31 29 26 25 22 19 17 14 19 22 27 32 32 31 32 31 30 30 31 33 39 40 40 43 41
46 43 41 39 36 35 32 29 28 26 19 14 12 13 15 23 28 32 36 40 37 37 28 33 38 38 37 40 40 40 42 42
45 50 49 47 43 37 30 23 24 24 19 17 12 24 31 35 40 39 41 46 44 37 35 36 39 43 46 44 42 44 43 44
Wind_Direction_500mb
175 169 162 151 159 171 173 169 170 172 173 174 172 170 164 153 135 136 111 91 37 54 33 359 23 53 59 99 107 95 60 60
185 185 171 171 171 173 174 172 172 173 180 182 182 185 177 176 170 133 118 47 14 5 353 8 202 69 73 109 92 73 62 69
195 196 194 187 188 187 182 180 179 183 183 187 192 199 194 196 179 177 154 355 348 338 341 307 185 197 127 110 99 81 76 80
203 212 215 209 206 200 196 192 190 188 192 193 200 205 209 210 205 239 317 335 335 335 332 309 191 210 190 164 120 115 102 97
218 223 228 230 217 212 209 206 198 197 197 205 210 215 224 232 252 268 297 307 323 321 300 299 250 215 213 210 329 177 162 127
232 229 223 225 230 224 220 215 210 204 209 217 225 225 233 246 259 269 288 304 311 313 309 300 272 235 229 235 295 206 194 188
243 243 241 234 229 227 228 224 220 214 223 233 249 238 238 248 261 264 277 292 308 311 310 306 274 242 254 256 259 210 211 223
334 305 256 244 240 238 227 226 220 216 231 239 259 288 279 261 261 264 278 282 294 304 300 295 269 255 252 261 228 219 221 236
288 293 306 246 246 255 219 213 220 222 235 243 275 292 281 271 258 269 280 284 286 292 290 280 261 246 240 266 236 223 226 222
265 271 295 266 229 234 218 212 215 228 243 267 298 321 289 265 267 272 274 273 283 287 283 266 253 253 280 244 223 223 233 230
251 238 267 280 242 229 228 216 210 232 237 254 295 304 292 267 287 298 291 286 284 288 285 255 252 251 259 243 237 235 235 243
243 241 258 285 264 245 235 218 224 225 229 247 274 279 299 299 299 300 293 283 279 287 291 251 241 240 242 248 253 246 243 245
235 245 231 243 255 237 225 221 223 228 238 255 259 258 278 292 303 303 294 292 288 286 289 255 234 236 238 253 268 254 248 247
209 221 240 235 229 214 215 219 225 234 240 253 260 262 271 285 298 302 293 299 292 283 288 262 242 242 242 253 262 257 256 257
210 216 231 233 230 224 219 219 228 236 242 256 269 263 268 270 277 284 283 290 291 287 289 266 249 245 248 254 258 259 263 261
213 211 212 223 231 233 225 225 230 237 251 261 273 263 263 264 266 265 275 275 275 279 287 269 261 252 252 253 259 261 263 259
227 230 223 213 221 231 226 230 235 242 255 264 266 263 266 267 271 275 282 286 282 272 271 272 264 260 257 255 255 260 262 261
234 233 232 229 220 216 219 220 226 236 243 248 253 253 258 267 279 291 292 294 298 290 283 271 266 265 263 260 258 259 258 255
243 244 240 234 232 224 220 224 226 228 225 245 261 274 269 282 294 296 299 294 294 296 288 291 288 277 266 268 266 265 259 257
252 250 244 237 229 229 228 233 244 256 256 258 303 306 289 281 285 290 291 292 292 281 283 285 291 284 268 263 262 265 265 262
Wind_Speed_850mb
39 37 31 31 32 31 29 26 23 25 21 19 19 16 15 12 9 7 5 5 4 5 4 6 6 11 13 15 16 14 13 14
38 34 33 30 28 27 26 26 25 26 24 20 16 13 12 9 8 5 3 1 5 6 5 3 2 4 9 16 14 15 14 12
36 32 31 33 30 27 24 23 25 27 25 20 16 14 14 10 10 4 1 3 7 8 9 2 6 5 5 12 13 15 17 16
35 33 33 32 29 26 24 23 25 28 26 22 18 15 15 12 8 5 3 8 10 13 12 2 7 11 7 11 6 9 14 16
33 29 30 32 31 28 27 25 27 28 25 23 21 19 18 13 11 11 9 12 13 16 11 7 7 10 14 18 9 11 11 12
15 20 23 26 26 30 29 30 30 29 26 24 25 25 22 18 18 17 17 17 15 16 12 10 10 12 15 20 12 19 17 12
12 20 18 18 21 27 34 36 32 30 28 27 24 31 27 25 24 23 21 19 18 16 14 12 10 14 16 15 13 21 22 17
3 7 21 17 18 23 33 40 37 30 27 22 28 33 29 30 27 26 25 22 20 19 17 14 13 16 19 15 16 23 21 22
23 16 14 23 17 15 26 40 41 29 24 24 23 22 31 22 27 27 29 29 24 19 19 17 14 14 15 20 23 23 24 21
41 30 20 12 14 13 20 30 29 29 21 17 20 14 16 26 29 32 33 30 24 20 19 18 15 17 21 18 25 25 27 26
23 22 17 9 9 9 13 19 26 23 16 18 13 13 10 21 21 23 25 25 25 23 21 22 21 18 17 19 24 27 22 32
9 17 19 18 12 12 14 19 23 26 22 20 16 13 17 19 22 27 25 26 24 25 24 25 26 20 17 19 23 29 29 24
4 13 16 8 12 15 19 23 27 25 22 22 21 19 20 22 27 28 22 22 27 27 28 27 33 30 29 27 27 26 27 25
10 10 10 11 13 21 25 28 30 29 29 25 23 22 21 22 24 23 23 27 29 28 30 28 38 36 36 33 29 26 27 27
19 17 15 16 19 22 23 27 31 31 28 25 23 23 23 22 20 18 20 25 25 27 31 30 34 39 38 37 33 29 30 33
28 23 19 20 26 28 24 29 33 31 28 26 25 24 26 24 23 21 19 19 22 26 27 28 32 39 43 42 38 35 33 34
31 29 26 26 28 29 22 29 32 30 27 27 23 22 22 22 23 26 25 26 24 24 25 25 29 34 40 43 44 40 39 39
37 37 34 33 32 30 30 31 29 26 25 22 19 17 14 19 22 27 32 32 31 32 31 30 30 31 33 39 40 40 43 41
46 43 41 39 36 35 32 29 28 26 19 14 12 13 15 23 28 32 36 40 37 37 28 33 38 38 37 40 40 40 42 42
45 50 49 47 43 37 30 23 24 24 19 17 12 24 31 35 40 39 41 46 44 37 35 36 39 43 46 44 42 44 43 44
Wind_Direction_850mb
175 169 162 151 159 171 173 169 170 172 173 174 172 170 164 153 135 136 111 91 37 54 33 359 23 53 59 99 107 95 60 60
185 185 171 171 171 173 174 172 172 173 180 182 182 185 177 176 170 133 118 47 14 5 353 8 202 69 73 109 92 73 62 69
195 196 194 187 188 187 182 180 179 183 183 187 192 199 194 196 179 177 154 355 348 338 341 307 185 197 127 110 99 81 76 80
203 212 215 209 206 200 196 192 190 188 192 193 200 205 209 210 205 239 317 335 335 335 332 309 191 210 190 164 120 115 102 97
218 223 228 230 217 212 209 206 198 197 197 205 210 215 224 232 252 268 297 307 323 321 300 299 250 215 213 210 329 177 162 127
232 229 223 225 230 224 220 215 210 204 209 217 225 225 233 246 259 269 288 304 311 313 309 300 272 235 229 235 295 206 194 188
243 243 241 234 229 227 228 224 220 214 223 233 249 238 238 248 261 264 277 292 308 311 310 306 274 242 254 256 259 210 211 223
334 305 256 244 240 238 227 226 220 216 231 239 259 288 279 261 261 264 278 282 294 304 300 295 269 255 252 261 228 219 221 236
288 293 306 246 246 255 219 213 220 222 235 243 275 292 281 271 258 269 280 284 286 292 290 280 261 246 240 266 236 223 226 222
265 271 295 266 229 234 218 212 215 228 243 267 298 321 289 265 267 272 274 273 283 287 283 266 253 253 280 244 223 223 233 230
251 238 267 280 242 229 228 216 210 232 237 254 295 304 292 267 287 298 291 286 284 288 285 255 252 251 259 243 237 235 235 243
243 241 258 285 264 245 235 218 224 225 229 247 274 279 299 299 299 300 293 283 279 287 291 251 241 240 242 248 253 246 243 245
235 245 231 243 255 237 225 221 223 228 238 255 259 258 278 292 303 303 294 292 288 286 289 255 234 236 238 253 268 254 248 247
209 221 240 235 229 214 215 219 225 234 240 253 260 262 271 285 298 302 293 299 292 283 288 262 242 242 242 253 262 257 256 257
210 216 231 233 230 224 219 219 228 236 242 256 269 263 268 270 277 284 283 290 291 287 289 266 249 245 248 254 258 259 263 261
213 211 212 223 231 233 225 225 230 237 251 261 273 263 263 264 266 265 275 275 275 279 287 269 261 252 252 253 259 261 263 259
227 230 223 213 221 231 226 230 235 242 255 264 266 263 266 267 271 275 282 286 282 272 271 272 264 260 257 255 255 260 262 261
234 233 232 229 220 216 219 220 226 236 243 248 253 253 258 267 279 291 292 294 298 290 283 271 266 265 263 260 258 259 258 255
243 244 240 234 232 224 220 224 226 228 225 245 261 274 269 282 294 296 299 294 294 296 288 291 288 277 266 268 266 265 259 257
252 250 244 237 229 229 228 233 244 256 256 258 303 306 289 281 285 290 291 292 292 281 283 285 291 284 268 263 262 265 265 262